Weather Service Report


484 
ASUS44 KBMX 290010
RWRAL 
             
ALABAMA REGIONAL WEATHER ROUNDUP
NATIONAL WEATHER SERVICE BIRMINGHAM AL
700 PM CDT FRI AUG 28 2015

NOTE: "FAIR" INDICATES FEW OR NO CLOUDS BELOW 12,000 FEET
WITH NO SIGNIFICANT WEATHER AND/OR OBSTRUCTIONS TO VISIBILITY.

THE REMARK "TC" DENOTES TEMPERATURE IN DEGREES CELSIUS.

ALZ001>011-014-016>018-020-290100-
NORTH ALABAMA
  
CITY           SKY/WX    TMP DP  RH WIND       PRES   REMARKS
MUSCLE SHOALS  CLEAR     81  67  62 E5        30.04S                  
6HR MIN TEMP:  81; 6HR MAX TEMP:  89;                                

HUNTSVILLE     CLEAR     82  68  62 SE6       30.04F                  
6HR MIN TEMP:  82; 6HR MAX TEMP:  88;                                

DECATUR        CLEAR     80  70  71 E3        30.05S                  
6HR MIN TEMP:  80; 6HR MAX TEMP:  87;                                

HALEYVILLE     FAIR      80  70  71 CALM      30.07S                  
6HR MIN TEMP:  80; 6HR MAX TEMP:  88;                                

GADSDEN        CLEAR     82  64  54 E7        30.05R                  
6HR MIN TEMP:  82; 6HR MAX TEMP:  88;                                

$$
 
ALZ012-013-022-023-030>036-040>044-290100-
WEST CENTRAL ALABAMA
  
CITY           SKY/WX    TMP DP  RH WIND       PRES   REMARKS
TUSCALOOSA     CLEAR     85  69  58 NE6       29.99R                  
6HR MIN TEMP:  85; 6HR MAX TEMP:  92;                                

$$
 
ALZ015-024>027-033>036-040>044-290100-
CENTRAL ALABAMA
  
CITY           SKY/WX    TMP DP  RH WIND       PRES   REMARKS
BIRMINGHAM     MOCLDY    85  70  60 E6        30.05R                  
6HR MIN TEMP:  83; 6HR MAX TEMP:  88;                                

MONTGOMERY     CLOUDY    82  70  66 E13       30.01R THUNDER          
6HR MIN TEMP:  79; 6HR MAX TEMP:  94; 6HR PCP:  0.10;                

SHELBY CO ARPT PTCLDY    77  74  90 CALM      30.02S FOG              
6HR MIN TEMP:  76; 6HR MAX TEMP:  88; 6HR PCP:  0.09;                

MAXWELL AFB    CLOUDY    83  73  71 E12       30.00R HX  90           
6HR MIN TEMP:  80; 6HR MAX TEMP:  91; 6HR PCP: TRACE;                

GREENVILLE     FAIR      82  67  60 SE7       29.99R THUNDER          
6HR MIN TEMP:  82; 6HR MAX TEMP:  93;                                

$$
 
ALZ019-021-028-029-037-038-045>048-290100-
EAST CENTRAL ALABAMA
  
CITY           SKY/WX    TMP DP  RH WIND       PRES   REMARKS
ANNISTON       CLEAR     82  68  62 E6        30.06R                  
6HR MIN TEMP:  82; 6HR MAX TEMP:  87;                                

ALEXANDER CITY LGT RAIN  82  71  71 E10G20    30.05R                  
6HR MIN TEMP:  82; 6HR MAX TEMP:  89;                                

AUBURN         CLOUDY    77  70  79 E9        30.08R THUNDER          
6HR MIN TEMP:  77; 6HR MAX TEMP:  89;                                

$$
 
ALZ051>064-290100-
SOUTHWEST ALABAMA
  
CITY           SKY/WX    TMP DP  RH WIND       PRES   REMARKS
MOBILE         CLEAR     81  67  62 SW7       29.98R                  
6HR MIN TEMP:  81; 6HR MAX TEMP:  90;                                

BROOKLEY FIELD CLEAR     83  68  60 CALM      29.98R                  
6HR MIN TEMP:  83; 6HR MAX TEMP:  89;                                

EVERGREEN      MOCLDY    89  68  49 E17       29.97R HX  93           
6HR MIN TEMP:  89; 6HR MAX TEMP:  96;                                

$$

ALZ049-050-065>069-290100-
SOUTHEAST ALABAMA
  
CITY           SKY/WX    TMP DP  RH WIND       PRES   REMARKS
DOTHAN         CLOUDY    79  73  82 E8        30.05S                  
6HR MIN TEMP:  78; 6HR MAX TEMP:  91; 6HR PCP:  0.17;                

OZARK          CLOUDY    81  71  71 E6        30.01S                  
6HR MIN TEMP:  81; 6HR MAX TEMP:  93;                                

TROY           MOCLDY    82  71  69 E8        30.01R                  
6HR MIN TEMP:  82; 6HR MAX TEMP:  93; 6HR PCP: TRACE;                

EUFAULA        NOT AVBL                                               
$$

Return to Home page


Western Regional Climate Center, wrcc@dri.edu